Regional Weather Roundup
Issued by NWS

Home | Current Version | Previous Version | Text Only | Print | Product List | Glossary On
Versions: 1 2 3 4 5 6 7 8 9 10 11 12 13 14 15 16 17 18 19 20 21 22 23 24 25 26 27 28
000
ASUS44 KLIX 230513
RWRLA
LOUISIANA WEATHER ROUNDUP
NATIONAL WEATHER SERVICE NEW ORLEANS LA
1200 AM CDT TUE MAY 23 2017

NOTE: "FAIR" INDICATES FEW OR NO CLOUDS BELOW 12,000 FEET WITH NO
      SIGNIFICANT WEATHER AND/OR OBSTRUCTIONS TO VISIBILITY.
      SKY/WX - SKY CONDITION AND SIGNIFICANT WEATHER.
      TMP - AIR TEMPERATURE.    DP   - DEWPOINT TEMPERATURE.
      RH  - RELATIVE HUMIDITY.  PRES - PRESSURE.
      HX  - HEAT INDEX.         WCI  - WIND CHILL INDEX.

*  THESE STATIONS ARE NOT NWS OR FAA STATIONS AND ARE NOT UNDER
   NWS QUALITY CONTROL.

LAZ040-048-061>063-065-066-069-230600-
SOUTHEAST LOUISIANA

CITY           SKY/WX    TMP DP  RH WIND       PRES   REMARKS
N.O. INTL ARPT LGT RAIN  74  72  93 S14       29.86F
N.O. LAKEFRONT CLOUDY    73  72  96 S9        29.87F
N.O. DOWNTOWN*   N/A     74  72  93 S9          N/A
RESERVE*       RAIN      74  71  91 S12       29.85F
SLIDELL        LGT RAIN  73  71  93 S8G21     29.87S
BATON ROUGE    CLOUDY    71  69  93 W12       29.84F
BOOTHVILLE     LGT RAIN N/A N/A N/A SE9       29.91S
BELLE CHASSE   CLOUDY   N/A N/A N/A S14       29.87F
BOGALUSA*      CLOUDY    72  68  88 E6        29.89F
GALLIANO*      MOCLDY    73  68  85 S7        29.88F
NEW ROADS*     CLOUDY    70  69  98 SE3       29.84S
GONZALES*      DRIZZLE   72  69  93 S12G17    29.84F
HAMMOND*       CLOUDY    72  70  94 S9        29.85F
HOUMA*         NOT AVBL
PORT FOURCHON* CLOUDY    75  72  88 SE16      29.86F

$$

LAZ041-044-053-054-230600-
SOUTHWEST LOUISIANA

CITY           SKY/WX    TMP DP  RH WIND       PRES   REMARKS
LAKE CHARLES   CLOUDY    72  70  93 N5        29.83F
LAFAYETTE      CLOUDY    74  73  97 S10       29.83F
PATTERSON      CLOUDY    73  72  96 SE10      29.84F
SALT POINT       N/A     75  72  90 VRB6      29.82F
NEW IBERIA     CLOUDY    75  71  87 S9        29.84S
CHENAULT AIRPK CLOUDY    71  71  99 N5        29.84F

$$

LAZ027-028-230600-
CENTRAL LOUISIANA

CITY           SKY/WX    TMP DP  RH WIND       PRES   REMARKS
FORT POLK      CLOUDY    65  64  96 N7        29.86S
ALEXANDRIA INT CLOUDY    66  65  96 NE5       29.84F
ALEXANDRIA     CLOUDY    67  67 100 NE7       29.85F

$$

LAZ001-002-230600-
NORTHWEST LOUISIANA

CITY           SKY/WX    TMP DP  RH WIND       PRES   REMARKS
SHREVEPORT     CLOUDY    62  61  96 N7        29.91F
BARKSDALE AFB  CLOUDY    62  62 100 N5        29.91S
DTN SHREVEPORT CLOUDY    63  60  90 N6        29.92S

$$

LAZ014-016-230600-
NORTHEAST LOUISIANA

CITY           SKY/WX    TMP DP  RH WIND       PRES   REMARKS
MONROE         CLOUDY    63  62  97 N7        29.91F
TALLULAH       HVY RAIN  67  66  97 N7        29.89F FOG

$$





USA.gov is the U.S. government's official web portal to all federal, state and local government web resources and services.